Terug naar catalogus

STARLINK-33612

ActiefCommunicatieVLEO
NORAD 63325·PAYLOAD·🇺🇸 United States

Gelanceerd Mar 18, 2025 vanaf Cape Canaveral Space Force Station

Loading…

Volgende Passages (komende 24 uur)

TLE

VersSource: CelesTrak SupGP

Epoch: Sep 15, 2026, 02:29 UTC

1 63325C 25057U   26258.10395833 -.00027123  00000+0 -98228-3 0  2589
2 63325  43.0041  41.4242 0001431 269.4229  51.1842 15.27595564    14

Volg STARLINK-33612 in realtime met AllMySat

Download on the App Store